Date,TemperatureHighF,TemperatureAvgF,TemperatureLowF,DewpointHighF,DewpointAvgF,DewpointLowF,HumidityHigh,HumidityAvg,HumidityLow,PressureMaxIn,PressureMinIn,WindSpeedMaxMPH,WindSpeedAvgMPH,GustSpeedMaxMPH,PrecipitationSumIn
2013-1-23,-200.0,0.0,200.0,-99.9,-99.9,-99.9,0,0,100,0.00,40.00,2,2,0,0.00
2013-1-24,-200.0,0.0,200.0,-99.9,-99.9,-99.9,0,0,100,0.00,40.00,4,3,0,0.00
2013-1-25,-200.0,0.0,200.0,-99.9,-99.9,-99.9,0,0,100,0.00,40.00,1,1,0,0.00
2013-1-27,-200.0,0.0,200.0,-99.9,-99.9,-99.9,0,0,100,0.00,40.00,6,6,0,0.00
2013-1-28,-200.0,0.0,200.0,-99.9,-99.9,-99.9,0,0,100,0.00,40.00,3,3,0,0.00
2013-1-29,-200.0,0.0,200.0,-99.9,-99.9,-99.9,0,0,100,0.00,40.00,3,3,0,0.00
2013-1-30,-200.0,0.0,200.0,-99.9,-99.9,-99.9,0,0,100,0.00,40.00,2,2,0,0.00
2013-2-10,-200.0,0.0,200.0,-99.9,-99.9,-99.9,0,0,100,0.00,40.00,2,2,0,0.00
2013-2-11,-200.0,0.0,200.0,-99.9,-99.9,-99.9,0,0,100,0.00,40.00,1,1,0,0.00
2013-3-1,-200.0,0.0,200.0,-99.9,-99.9,-99.9,0,0,100,0.00,40.00,5,4,0,0.00
2013-3-3,-200.0,0.0,200.0,-99.9,-99.9,-99.9,0,0,100,0.00,40.00,3,2,0,0.00
2013-3-12,-200.0,0.0,200.0,-99.9,-99.9,-99.9,0,0,100,0.00,40.00,1,1,0,0.00
2013-4-10,-200.0,0.0,200.0,-99.9,-99.9,-99.9,0,0,100,0.00,40.00,12,7,0,0.00
2013-4-11,-200.0,0.0,200.0,-99.9,-99.9,-99.9,0,0,100,0.00,40.00,2,2,0,0.00
2013-5-30,-200.0,0.0,200.0,-99.9,-99.9,-99.9,0,0,100,0.00,40.00,6,6,0,0.00
2013-7-17,-200.0,0.0,200.0,-99.9,-99.9,-99.9,0,0,100,0.00,40.00,4,4,0,0.00
2013-8-11,-200.0,0.0,200.0,-99.9,-99.9,-99.9,0,0,100,0.00,40.00,6,6,0,0.00
2013-8-12,-200.0,0.0,200.0,-99.9,-99.9,-99.9,0,0,100,0.00,40.00,7,4,0,0.00
2013-8-13,-200.0,0.0,200.0,-99.9,-99.9,-99.9,0,0,100,0.00,40.00,7,2,0,0.00
2013-8-14,-200.0,0.0,200.0,-99.9,-99.9,-99.9,0,0,100,0.00,40.00,8,4,0,0.00
2013-8-15,-200.0,0.0,200.0,-99.9,-99.9,-99.9,0,0,100,0.00,40.00,5,1,0,0.00
2013-8-16,-200.0,0.0,200.0,-99.9,-99.9,-99.9,0,0,100,0.00,40.00,6,3,0,0.00
2013-8-17,-200.0,0.0,200.0,-99.9,-99.9,-99.9,0,0,100,0.00,40.00,4,2,0,0.00
2013-8-18,-200.0,0.0,200.0,-99.9,-99.9,-99.9,0,0,100,0.00,40.00,5,3,0,0.00
2013-8-19,-200.0,0.0,200.0,-99.9,-99.9,-99.9,0,0,100,0.00,40.00,5,3,0,0.00
2013-8-20,-200.0,0.0,200.0,-99.9,-99.9,-99.9,0,0,100,0.00,40.00,7,2,0,0.00
2013-8-21,-200.0,0.0,200.0,-99.9,-99.9,-99.9,0,0,100,0.00,40.00,8,2,0,0.00
2013-8-22,-200.0,0.0,200.0,-99.9,-99.9,-99.9,0,0,100,0.00,40.00,9,4,0,0.00
2013-8-23,-200.0,0.0,200.0,-99.9,-99.9,-99.9,0,0,100,0.00,40.00,7,3,0,0.00
2013-8-24,-200.0,0.0,200.0,-99.9,-99.9,-99.9,0,0,100,0.00,40.00,9,2,0,0.00
2013-8-25,-200.0,0.0,200.0,-99.9,-99.9,-99.9,0,0,100,0.00,40.00,9,4,0,0.00
2013-8-26,-200.0,0.0,200.0,-99.9,-99.9,-99.9,0,0,100,0.00,40.00,3,1,0,0.00
2013-8-27,-200.0,0.0,200.0,-99.9,-99.9,-99.9,0,0,100,0.00,40.00,1,1,0,0.00
2013-8-28,-200.0,0.0,200.0,-99.9,-99.9,-99.9,0,0,100,0.00,40.00,8,5,0,0.00
2013-8-29,-200.0,0.0,200.0,-99.9,-99.9,-99.9,0,0,100,0.00,40.00,4,2,0,0.00
2013-8-30,-200.0,0.0,200.0,-99.9,-99.9,-99.9,0,0,100,0.00,40.00,4,2,0,0.00
2013-8-31,-200.0,0.0,200.0,-99.9,-99.9,-99.9,0,0,100,0.00,40.00,8,4,0,0.00
2013-9-1,-200.0,0.0,200.0,-99.9,-99.9,-99.9,0,0,100,0.00,40.00,8,3,0,0.00
2013-9-2,-200.0,0.0,200.0,-99.9,-99.9,-99.9,0,0,100,0.00,40.00,7,3,0,0.00
2013-9-3,-200.0,0.0,200.0,-99.9,-99.9,-99.9,0,0,100,0.00,40.00,8,3,0,0.00
2013-9-4,-200.0,0.0,200.0,-99.9,-99.9,-99.9,0,0,100,0.00,40.00,6,2,0,0.00
2013-9-5,-200.0,0.0,200.0,-99.9,-99.9,-99.9,0,0,100,0.00,40.00,7,2,0,0.00
2013-9-6,-200.0,0.0,200.0,-99.9,-99.9,-99.9,0,0,100,0.00,40.00,5,2,0,0.00
2013-9-7,-200.0,0.0,200.0,-99.9,-99.9,-99.9,0,0,100,0.00,40.00,5,2,0,0.00
2013-9-8,-200.0,0.0,200.0,-99.9,-99.9,-99.9,0,0,100,0.00,40.00,5,2,0,0.00
2013-9-9,-200.0,0.0,200.0,-99.9,-99.9,-99.9,0,0,100,0.00,40.00,7,2,0,0.00
2013-9-10,-200.0,0.0,200.0,-99.9,-99.9,-99.9,0,0,100,0.00,40.00,7,3,0,0.00
2013-9-11,-200.0,0.0,200.0,-99.9,-99.9,-99.9,0,0,100,0.00,40.00,5,2,0,0.00
2013-9-12,-200.0,0.0,200.0,-99.9,-99.9,-99.9,0,0,100,0.00,40.00,5,2,0,0.00
2013-9-13,-200.0,0.0,200.0,-99.9,-99.9,-99.9,0,0,100,0.00,40.00,5,2,0,0.00
2013-9-14,-200.0,0.0,200.0,-99.9,-99.9,-99.9,0,0,100,0.00,40.00,6,2,0,0.00
2013-9-15,-200.0,0.0,200.0,-99.9,-99.9,-99.9,0,0,100,0.00,40.00,5,2,0,0.00
2013-9-16,-200.0,0.0,200.0,-99.9,-99.9,-99.9,0,0,100,0.00,40.00,8,3,0,0.00
2013-9-17,-200.0,0.0,200.0,-99.9,-99.9,-99.9,0,0,100,0.00,40.00,8,4,0,0.00
2013-9-18,-200.0,0.0,200.0,-99.9,-99.9,-99.9,0,0,100,0.00,40.00,1,1,0,0.00
2013-9-19,-200.0,0.0,200.0,-99.9,-99.9,-99.9,0,0,100,0.00,40.00,6,3,0,0.00
2013-9-20,-200.0,0.0,200.0,-99.9,-99.9,-99.9,0,0,100,0.00,40.00,5,3,0,0.00
2013-9-21,-200.0,0.0,200.0,-99.9,-99.9,-99.9,0,0,100,0.00,40.00,5,4,0,0.00
2013-9-22,-200.0,0.0,200.0,-99.9,-99.9,-99.9,0,0,100,0.00,40.00,4,2,0,0.00
2013-9-23,-200.0,0.0,200.0,-99.9,-99.9,-99.9,0,0,100,0.00,40.00,6,2,0,0.00
2013-9-24,-200.0,0.0,200.0,-99.9,-99.9,-99.9,0,0,100,0.00,40.00,6,2,0,0.00
2013-9-25,-200.0,0.0,200.0,-99.9,-99.9,-99.9,0,0,100,0.00,40.00,4,2,0,0.00
2013-9-26,-200.0,0.0,200.0,-99.9,-99.9,-99.9,0,0,100,0.00,40.00,8,4,0,0.00
2013-9-27,-200.0,0.0,200.0,-99.9,-99.9,-99.9,0,0,100,0.00,40.00,4,2,0,0.00
2013-9-28,-200.0,0.0,200.0,-99.9,-99.9,-99.9,0,0,100,0.00,40.00,4,3,0,0.00
2013-9-29,-200.0,0.0,200.0,-99.9,-99.9,-99.9,0,0,100,0.00,40.00,5,3,0,0.00
2013-9-30,-200.0,0.0,200.0,-99.9,-99.9,-99.9,0,0,100,0.00,40.00,7,5,0,0.00
2013-10-1,-200.0,0.0,200.0,-99.9,-99.9,-99.9,0,0,100,0.00,40.00,6,2,0,0.00
2013-10-2,-200.0,0.0,200.0,-99.9,-99.9,-99.9,0,0,100,0.00,40.00,5,3,0,0.00
2013-10-3,-200.0,0.0,200.0,-99.9,-99.9,-99.9,0,0,100,0.00,40.00,5,3,0,0.00
2013-10-4,-200.0,0.0,200.0,-99.9,-99.9,-99.9,0,0,100,0.00,40.00,5,2,0,0.00
2013-10-5,-200.0,0.0,200.0,-99.9,-99.9,-99.9,0,0,100,0.00,40.00,6,4,0,0.00
2013-10-6,-200.0,0.0,200.0,-99.9,-99.9,-99.9,0,0,100,0.00,40.00,4,3,0,0.00
2013-10-7,-200.0,0.0,200.0,-99.9,-99.9,-99.9,0,0,100,0.00,40.00,7,3,0,0.00
2013-10-8,-200.0,0.0,200.0,-99.9,-99.9,-99.9,0,0,100,0.00,40.00,5,2,0,0.00
2013-10-9,-200.0,0.0,200.0,-99.9,-99.9,-99.9,0,0,100,0.00,40.00,6,4,0,0.00
2013-10-10,-200.0,0.0,200.0,-99.9,-99.9,-99.9,0,0,100,0.00,40.00,5,2,0,0.00
2013-10-11,-200.0,0.0,200.0,-99.9,-99.9,-99.9,0,0,100,0.00,40.00,5,2,0,0.00
2013-10-12,-200.0,0.0,200.0,-99.9,-99.9,-99.9,0,0,100,0.00,40.00,6,2,0,0.00
2013-10-13,-200.0,0.0,200.0,-99.9,-99.9,-99.9,0,0,100,0.00,40.00,4,2,0,0.00
2013-10-14,-200.0,0.0,200.0,-99.9,-99.9,-99.9,0,0,100,0.00,40.00,4,2,0,0.00
2013-10-15,-200.0,0.0,200.0,-99.9,-99.9,-99.9,0,0,100,0.00,40.00,3,2,0,0.00
2013-10-16,-200.0,0.0,200.0,-99.9,-99.9,-99.9,0,0,100,0.00,40.00,4,2,0,0.00
2013-10-17,-200.0,0.0,200.0,-99.9,-99.9,-99.9,0,0,100,0.00,40.00,5,4,0,0.00
2013-10-18,-200.0,0.0,200.0,-99.9,-99.9,-99.9,0,0,100,0.00,40.00,5,3,0,0.00
2013-10-19,-200.0,0.0,200.0,-99.9,-99.9,-99.9,0,0,100,0.00,40.00,6,2,0,0.00
2013-10-20,-200.0,0.0,200.0,-99.9,-99.9,-99.9,0,0,100,0.00,40.00,5,2,0,0.00
2013-10-21,-200.0,0.0,200.0,-99.9,-99.9,-99.9,0,0,100,0.00,40.00,4,2,0,0.00
2013-10-22,-200.0,0.0,200.0,-99.9,-99.9,-99.9,0,0,100,0.00,40.00,6,3,0,0.00
2013-10-23,-200.0,0.0,200.0,-99.9,-99.9,-99.9,0,0,100,0.00,40.00,4,2,0,0.00
2013-10-24,-200.0,0.0,200.0,-99.9,-99.9,-99.9,0,0,100,0.00,40.00,3,1,0,0.00
2013-10-25,-200.0,0.0,200.0,-99.9,-99.9,-99.9,0,0,100,0.00,40.00,4,1,0,0.00
2013-10-26,-200.0,0.0,200.0,-99.9,-99.9,-99.9,0,0,100,0.00,40.00,5,2,0,0.00
2013-10-27,-200.0,0.0,200.0,-99.9,-99.9,-99.9,0,0,100,0.00,40.00,5,4,0,0.00
2013-10-28,-200.0,0.0,200.0,-99.9,-99.9,-99.9,0,0,100,0.00,40.00,6,4,0,0.00
2013-10-29,-200.0,0.0,200.0,-99.9,-99.9,-99.9,0,0,100,0.00,40.00,5,2,0,0.00
2013-10-30,-200.0,0.0,200.0,-99.9,-99.9,-99.9,0,0,100,0.00,40.00,4,4,0,0.00
2013-10-31,-200.0,0.0,200.0,-99.9,-99.9,-99.9,0,0,100,0.00,40.00,2,2,0,0.00
2013-11-1,-200.0,0.0,200.0,-99.9,-99.9,-99.9,0,0,100,0.00,40.00,3,2,0,0.00
2013-11-2,-200.0,0.0,200.0,-99.9,-99.9,-99.9,0,0,100,0.00,40.00,6,2,0,0.00
2013-11-3,-200.0,0.0,200.0,-99.9,-99.9,-99.9,0,0,100,0.00,40.00,2,1,0,0.00
2013-11-4,-200.0,0.0,200.0,-99.9,-99.9,-99.9,0,0,100,0.00,40.00,3,1,0,0.00
2013-11-5,-200.0,0.0,200.0,-99.9,-99.9,-99.9,0,0,100,0.00,40.00,3,1,0,0.00
2013-11-6,-200.0,0.0,200.0,-99.9,-99.9,-99.9,0,0,100,0.00,40.00,3,2,0,0.00
2013-11-7,-200.0,0.0,200.0,-99.9,-99.9,-99.9,0,0,100,0.00,40.00,2,2,0,0.00
2013-11-8,-200.0,0.0,200.0,-99.9,-99.9,-99.9,0,0,100,0.00,40.00,4,3,0,0.00
2013-11-9,-200.0,0.0,200.0,-99.9,-99.9,-99.9,0,0,100,0.00,40.00,3,2,0,0.00
2013-11-10,-200.0,0.0,200.0,-99.9,-99.9,-99.9,0,0,100,0.00,40.00,2,2,0,0.00
2013-11-11,-200.0,0.0,200.0,-99.9,-99.9,-99.9,0,0,100,0.00,40.00,3,2,0,0.00
2013-11-12,-200.0,0.0,200.0,-99.9,-99.9,-99.9,0,0,100,0.00,40.00,2,1,0,0.00
2013-11-13,-200.0,0.0,200.0,-99.9,-99.9,-99.9,0,0,100,0.00,40.00,3,2,0,0.00
2013-11-14,-200.0,0.0,200.0,-99.9,-99.9,-99.9,0,0,100,0.00,40.00,5,3,0,0.00
2013-11-15,-200.0,0.0,200.0,-99.9,-99.9,-99.9,0,0,100,0.00,40.00,3,2,0,0.00
2013-11-16,-200.0,0.0,200.0,-99.9,-99.9,-99.9,0,0,100,0.00,40.00,1,1,0,0.00
2013-11-17,-200.0,0.0,200.0,-99.9,-99.9,-99.9,0,0,100,0.00,40.00,4,2,0,0.00
2013-11-18,-200.0,0.0,200.0,-99.9,-99.9,-99.9,0,0,100,0.00,40.00,4,1,0,0.00
2013-11-19,-200.0,0.0,200.0,-99.9,-99.9,-99.9,0,0,100,0.00,40.00,2,0,0,0.00
2013-11-20,-200.0,0.0,200.0,-99.9,-99.9,-99.9,0,0,100,0.00,40.00,1,0,0,0.00
2013-11-21,-200.0,0.0,200.0,-99.9,-99.9,-99.9,0,0,100,0.00,40.00,0,0,0,0.00
2013-11-22,-200.0,0.0,200.0,-99.9,-99.9,-99.9,0,0,100,0.00,40.00,0,0,0,0.00
2013-11-25,-200.0,0.0,200.0,-99.9,-99.9,-99.9,0,0,100,0.00,40.00,1,0,0,0.00
2013-11-26,-200.0,0.0,200.0,-99.9,-99.9,-99.9,0,0,100,0.00,40.00,1,1,0,0.00
2013-11-30,-200.0,0.0,200.0,-99.9,-99.9,-99.9,0,0,100,0.00,40.00,3,2,0,0.00
2013-12-1,-200.0,0.0,200.0,-99.9,-99.9,-99.9,0,0,100,0.00,40.00,4,2,0,0.00
2013-12-2,-200.0,0.0,200.0,-99.9,-99.9,-99.9,0,0,100,0.00,40.00,3,2,0,0.00
2013-12-3,-200.0,0.0,200.0,-99.9,-99.9,-99.9,0,0,100,0.00,40.00,5,3,0,0.00
2013-12-4,-200.0,0.0,200.0,-99.9,-99.9,-99.9,0,0,100,0.00,40.00,1,0,0,0.00
2013-12-5,-200.0,0.0,200.0,-99.9,-99.9,-99.9,0,0,100,0.00,40.00,1,0,0,0.00
2013-12-6,-200.0,0.0,200.0,-99.9,-99.9,-99.9,0,0,100,0.00,40.00,2,1,0,0.00
2013-12-7,-200.0,0.0,200.0,-99.9,-99.9,-99.9,0,0,100,0.00,40.00,4,1,0,0.00
2013-12-8,-200.0,0.0,200.0,-99.9,-99.9,-99.9,0,0,100,0.00,40.00,3,2,0,0.00
2013-12-9,-200.0,0.0,200.0,-99.9,-99.9,-99.9,0,0,100,0.00,40.00,2,1,0,0.00
2013-12-10,-200.0,0.0,200.0,-99.9,-99.9,-99.9,0,0,100,0.00,40.00,4,2,0,0.00
2013-12-11,-200.0,0.0,200.0,-99.9,-99.9,-99.9,0,0,100,0.00,40.00,3,2,0,0.00
2013-12-12,-200.0,0.0,200.0,-99.9,-99.9,-99.9,0,0,100,0.00,40.00,5,2,0,0.00
2013-12-13,-200.0,0.0,200.0,-99.9,-99.9,-99.9,0,0,100,0.00,40.00,2,1,0,0.00
2013-12-14,-200.0,0.0,200.0,-99.9,-99.9,-99.9,0,0,100,0.00,40.00,4,3,0,0.00
2013-12-15,-200.0,0.0,200.0,-99.9,-99.9,-99.9,0,0,100,0.00,40.00,2,2,0,0.00
2013-12-16,-200.0,0.0,200.0,-99.9,-99.9,-99.9,0,0,100,0.00,40.00,2,2,0,0.00
2013-12-17,-200.0,0.0,200.0,-99.9,-99.9,-99.9,0,0,100,0.00,40.00,2,2,0,0.00
2013-12-18,-200.0,0.0,200.0,-99.9,-99.9,-99.9,0,0,100,0.00,40.00,2,2,0,0.00
2013-12-19,-200.0,0.0,200.0,-99.9,-99.9,-99.9,0,0,100,0.00,40.00,2,2,0,0.00
2013-12-20,-200.0,0.0,200.0,-99.9,-99.9,-99.9,0,0,100,0.00,40.00,1,0,0,0.00
2013-12-21,-200.0,0.0,200.0,-99.9,-99.9,-99.9,0,0,100,0.00,40.00,2,1,0,0.00
2013-12-24,-200.0,0.0,200.0,-99.9,-99.9,-99.9,0,0,100,0.00,40.00,2,1,0,0.00
2013-12-25,-200.0,0.0,200.0,-99.9,-99.9,-99.9,0,0,100,0.00,40.00,4,1,0,0.00
2013-12-26,-200.0,0.0,200.0,-99.9,-99.9,-99.9,0,0,100,0.00,40.00,5,1,0,0.00
2013-12-27,-200.0,0.0,200.0,-99.9,-99.9,-99.9,0,0,100,0.00,40.00,2,2,0,0.00
2013-12-28,-200.0,0.0,200.0,-99.9,-99.9,-99.9,0,0,100,0.00,40.00,3,3,0,0.00
2013-12-29,-200.0,0.0,200.0,-99.9,-99.9,-99.9,0,0,100,0.00,40.00,4,3,0,0.00
2013-12-30,-200.0,0.0,200.0,-99.9,-99.9,-99.9,0,0,100,0.00,40.00,1,1,0,0.00
2013-12-31,-200.0,0.0,200.0,-99.9,-99.9,-99.9,0,0,100,0.00,40.00,3,2,0,0.00
2014-1-1,-200.0,0.0,200.0,-99.9,-99.9,-99.9,0,0,100,0.00,40.00,4,2,0,0.00
2014-1-2,-200.0,0.0,200.0,-99.9,-99.9,-99.9,0,0,100,0.00,40.00,3,2,0,0.00